Time,TemperatureF,DewpointF,PressureIn,WindDirection,WindDirectionDegrees,WindSpeedMPH,WindSpeedGustMPH,Humidity,HourlyPrecipIn,Conditions,Clouds,dailyrainin,SoftwareType,DateUTC
2013-11-28 00:00:00,22.5,18.4,29.84,NW,315,6.3,-999.0,84,-99.99,,,0.00,Acu-Link.com,2013-11-28 05:00:00,
2013-11-28 00:15:00,22.5,18.1,29.85,West,270,7.3,-999.0,83,-99.99,,,0.00,Acu-Link.com,2013-11-28 05:15:00,
2013-11-28 00:30:00,22.3,18.2,29.86,SW,225,6.8,-999.0,84,-99.99,,,0.00,Acu-Link.com,2013-11-28 05:30:00,
2013-11-28 00:45:00,22.3,17.9,29.86,WSW,247,8.9,-999.0,83,-99.99,,,0.00,Acu-Link.com,2013-11-28 05:45:00,
2013-11-28 01:00:00,22.3,17.7,29.87,SW,225,7.8,-999.0,82,-99.99,,,0.00,Acu-Link.com,2013-11-28 06:00:00,
2013-11-28 01:16:00,22.1,17.2,29.87,West,270,9.9,-999.0,81,-99.99,,,0.00,Acu-Link.com,2013-11-28 06:16:00,
2013-11-28 01:31:00,22.1,17.5,29.88,SSW,202,8.9,-999.0,82,-99.99,,,0.00,Acu-Link.com,2013-11-28 06:31:00,
2013-11-28 01:46:00,21.9,17.3,29.90,WSW,247,9.4,-999.0,82,-99.99,,,0.00,Acu-Link.com,2013-11-28 06:46:00,
2013-11-28 02:01:00,21.7,16.8,29.91,SSW,202,13.0,-999.0,81,-99.99,,,0.00,Acu-Link.com,2013-11-28 07:01:00,
2013-11-28 02:16:00,21.6,17.5,29.91,WSW,247,8.9,-999.0,84,-99.99,,,0.00,Acu-Link.com,2013-11-28 07:16:00,
2013-11-28 02:31:00,21.7,17.9,29.93,WSW,247,6.8,-999.0,85,-99.99,,,0.00,Acu-Link.com,2013-11-28 07:31:00,
2013-11-28 02:46:00,21.4,17.1,29.94,WSW,247,6.8,-999.0,83,-99.99,,,0.00,Acu-Link.com,2013-11-28 07:46:00,
2013-11-28 03:01:00,21.7,16.8,29.95,SW,225,7.3,-999.0,81,-99.99,,,0.00,Acu-Link.com,2013-11-28 08:01:00,
2013-11-28 03:17:00,21.2,16.0,29.96,WSW,247,6.8,-999.0,80,-99.99,,,0.00,Acu-Link.com,2013-11-28 08:17:00,
2013-11-28 03:32:00,20.5,15.0,29.95,West,270,5.3,-999.0,79,-99.99,,,0.00,Acu-Link.com,2013-11-28 08:32:00,
2013-11-28 03:47:00,19.6,14.7,29.95,WSW,247,4.7,-999.0,81,-99.99,,,0.00,Acu-Link.com,2013-11-28 08:47:00,
2013-11-28 04:02:00,19.2,14.3,29.96,SSW,202,4.2,-999.0,81,-99.99,,,0.00,Acu-Link.com,2013-11-28 09:02:00,
2013-11-28 04:17:00,19.0,14.4,29.96,SSW,202,4.2,-999.0,82,-99.99,,,0.00,Acu-Link.com,2013-11-28 09:17:00,
2013-11-28 04:32:00,19.0,14.4,29.96,West,270,7.3,-999.0,82,-99.99,,,0.00,Acu-Link.com,2013-11-28 09:32:00,
2013-11-28 04:47:00,18.9,14.3,29.96,WSW,247,6.8,-999.0,82,-99.99,,,0.00,Acu-Link.com,2013-11-28 09:47:00,
2013-11-28 05:02:00,18.5,14.2,29.95,WSW,247,7.3,-999.0,83,-99.99,,,0.00,Acu-Link.com,2013-11-28 10:02:00,
2013-11-28 05:17:00,18.3,14.0,29.96,SW,225,9.4,-999.0,83,-99.99,,,0.00,Acu-Link.com,2013-11-28 10:17:00,
2013-11-28 05:33:00,18.0,13.7,29.98,SSW,202,3.7,-999.0,83,-99.99,,,0.00,Acu-Link.com,2013-11-28 10:33:00,
2013-11-28 05:48:00,17.6,13.6,29.98,West,270,2.7,-999.0,84,-99.99,,,0.00,Acu-Link.com,2013-11-28 10:48:00,
2013-11-28 06:03:00,17.1,13.4,29.99,SW,225,2.2,-999.0,85,-99.99,,,0.00,Acu-Link.com,2013-11-28 11:03:00,
2013-11-28 06:18:00,16.9,13.5,30.00,WSW,247,3.7,-999.0,86,-99.99,,,0.00,Acu-Link.com,2013-11-28 11:18:00,
2013-11-28 06:33:00,16.7,13.5,30.02,South,180,3.7,-999.0,87,-99.99,,,0.00,Acu-Link.com,2013-11-28 11:33:00,
2013-11-28 06:48:00,16.7,13.8,30.03,SW,225,3.7,-999.0,88,-99.99,,,0.00,Acu-Link.com,2013-11-28 11:48:00,
2013-11-28 07:03:00,16.5,13.8,30.03,SSW,202,1.7,-999.0,89,-99.99,,,0.00,Acu-Link.com,2013-11-28 12:03:00,
2013-11-28 07:18:00,16.5,14.1,30.03,SW,225,5.8,-999.0,90,-99.99,,,0.00,Acu-Link.com,2013-11-28 12:18:00,
2013-11-28 07:34:00,16.7,14.3,30.03,SW,225,4.7,-999.0,90,-99.99,,,0.00,Acu-Link.com,2013-11-28 12:34:00,
2013-11-28 07:49:00,18.3,15.4,30.05,WSW,247,4.2,-999.0,88,-99.99,,,0.00,Acu-Link.com,2013-11-28 12:49:00,
2013-11-28 08:04:00,19.0,15.8,30.06,WSW,247,7.8,-999.0,87,-99.99,,,0.00,Acu-Link.com,2013-11-28 13:04:00,
2013-11-28 08:19:00,21.0,16.9,30.07,SW,225,6.8,-999.0,84,-99.99,,,0.00,Acu-Link.com,2013-11-28 13:19:00,
2013-11-28 08:34:00,20.1,16.6,30.08,West,270,4.2,-999.0,86,-99.99,,,0.00,Acu-Link.com,2013-11-28 13:34:00,
2013-11-28 08:49:00,21.0,16.7,30.09,West,270,6.8,-999.0,83,-99.99,,,0.00,Acu-Link.com,2013-11-28 13:49:00,
2013-11-28 09:05:00,22.3,17.4,30.07,West,270,6.8,-999.0,81,-99.99,,,0.00,Acu-Link.com,2013-11-28 14:05:00,
2013-11-28 09:20:00,22.8,17.3,30.08,SSW,202,7.3,-999.0,79,-99.99,,,0.00,Acu-Link.com,2013-11-28 14:20:00,
2013-11-28 09:35:00,23.0,18.1,30.08,West,270,4.2,-999.0,81,-99.99,,,0.00,Acu-Link.com,2013-11-28 14:35:00,
2013-11-28 09:50:00,23.4,19.0,30.09,West,270,9.4,-999.0,83,-99.99,,,0.00,Acu-Link.com,2013-11-28 14:50:00,
2013-11-28 10:05:00,23.5,19.1,30.09,WSW,247,8.9,-999.0,83,-99.99,,,0.00,Acu-Link.com,2013-11-28 15:05:00,
2013-11-28 10:21:00,23.7,19.3,30.10,WSW,247,8.3,-999.0,83,-99.99,,,0.00,Acu-Link.com,2013-11-28 15:21:00,
2013-11-28 10:36:00,24.8,19.5,30.10,West,270,6.3,-999.0,80,-99.99,,,0.00,Acu-Link.com,2013-11-28 15:36:00,
2013-11-28 10:51:00,26.1,19.6,30.10,ESE,112,4.7,-999.0,76,-99.99,,,0.00,Acu-Link.com,2013-11-28 15:51:00,
2013-11-28 11:06:00,27.5,20.0,30.09,SW,225,3.7,-999.0,73,-99.99,,,0.00,Acu-Link.com,2013-11-28 16:06:00,
2013-11-28 11:21:00,26.4,18.9,30.08,SW,225,6.8,-999.0,73,-99.99,,,0.00,Acu-Link.com,2013-11-28 16:21:00,
2013-11-28 11:36:00,25.9,18.1,30.08,SSW,202,7.3,-999.0,72,-99.99,,,0.00,Acu-Link.com,2013-11-28 16:36:00,
2013-11-28 11:51:00,26.2,18.1,30.07,WSW,247,4.7,-999.0,71,-99.99,,,0.00,Acu-Link.com,2013-11-28 16:51:00,
2013-11-28 12:06:00,26.8,19.0,30.08,WSW,247,6.8,-999.0,72,-99.99,,,0.00,Acu-Link.com,2013-11-28 17:06:00,
2013-11-28 12:22:00,27.7,19.2,30.08,SW,225,7.3,-999.0,70,-99.99,,,0.00,Acu-Link.com,2013-11-28 17:22:00,
2013-11-28 12:37:00,27.3,18.2,30.08,West,270,8.3,-999.0,68,-99.99,,,0.00,Acu-Link.com,2013-11-28 17:37:00,
2013-11-28 12:52:00,27.1,19.0,30.07,NNW,337,6.3,-999.0,71,-99.99,,,0.00,Acu-Link.com,2013-11-28 17:52:00,
2013-11-28 13:08:00,27.1,19.3,30.08,West,270,5.8,-999.0,72,-99.99,,,0.00,Acu-Link.com,2013-11-28 18:08:00,
2013-11-28 13:23:00,28.0,19.2,30.07,SW,225,7.8,-999.0,69,-99.99,,,0.00,Acu-Link.com,2013-11-28 18:23:00,
2013-11-28 13:38:00,28.0,19.2,30.07,SW,225,5.3,-999.0,69,-99.99,,,0.00,Acu-Link.com,2013-11-28 18:38:00,
2013-11-28 13:53:00,28.2,19.4,30.07,SW,225,3.2,-999.0,69,-99.99,,,0.00,Acu-Link.com,2013-11-28 18:53:00,
2013-11-28 14:08:00,27.9,19.7,30.07,West,270,3.7,-999.0,71,-99.99,,,0.00,Acu-Link.com,2013-11-28 19:08:00,
2013-11-28 14:24:00,28.0,19.5,30.06,South,180,3.7,-999.0,70,-99.99,,,0.00,Acu-Link.com,2013-11-28 19:24:00,
2013-11-28 14:39:00,28.6,19.4,30.06,SW,225,4.7,-999.0,68,-99.99,,,0.00,Acu-Link.com,2013-11-28 19:39:00,
2013-11-28 14:54:00,28.6,19.7,30.07,SSW,202,3.2,-999.0,69,-99.99,,,0.00,Acu-Link.com,2013-11-28 19:54:00,
2013-11-28 15:09:00,29.3,20.1,30.06,WSW,247,2.7,-999.0,68,-99.99,,,0.00,Acu-Link.com,2013-11-28 20:09:00,
2013-11-28 15:24:00,30.7,20.4,30.06,SW,225,2.2,-999.0,65,-99.99,,,0.00,Acu-Link.com,2013-11-28 20:24:00,
2013-11-28 15:39:00,29.1,19.9,30.06,SSW,202,5.3,-999.0,68,-99.99,,,0.00,Acu-Link.com,2013-11-28 20:39:00,
2013-11-28 15:54:00,28.9,20.0,30.05,SW,225,3.2,-999.0,69,-99.99,,,0.00,Acu-Link.com,2013-11-28 20:54:00,
2013-11-28 16:10:00,28.9,20.4,30.05,SW,225,1.1,-999.0,70,-99.99,,,0.00,Acu-Link.com,2013-11-28 21:10:00,
2013-11-28 16:25:00,28.8,20.6,30.05,SE,135,3.7,-999.0,71,-99.99,,,0.00,Acu-Link.com,2013-11-28 21:25:00,
2013-11-28 16:40:00,28.2,21.0,30.05,ESE,112,1.7,-999.0,74,-99.99,,,0.00,Acu-Link.com,2013-11-28 21:40:00,
2013-11-28 16:55:00,28.0,20.8,30.05,West,270,2.7,-999.0,74,-99.99,,,0.00,Acu-Link.com,2013-11-28 21:55:00,
2013-11-28 17:10:00,27.9,21.0,30.05,SSW,202,5.3,-999.0,75,-99.99,,,0.00,Acu-Link.com,2013-11-28 22:10:00,
2013-11-28 17:26:00,27.9,21.0,30.06,SSW,202,4.7,-999.0,75,-99.99,,,0.00,Acu-Link.com,2013-11-28 22:26:00,
2013-11-28 17:41:00,27.7,21.1,30.07,West,270,3.2,-999.0,76,-99.99,,,0.00,Acu-Link.com,2013-11-28 22:41:00,
2013-11-28 17:56:00,27.7,21.1,30.08,WSW,247,6.3,-999.0,76,-99.99,,,0.00,Acu-Link.com,2013-11-28 22:56:00,
2013-11-28 18:11:00,27.7,21.1,30.08,West,270,4.7,-999.0,76,-99.99,,,0.00,Acu-Link.com,2013-11-28 23:11:00,
2013-11-28 18:27:00,27.7,21.4,30.08,SSW,202,5.3,-999.0,77,-99.99,,,0.00,Acu-Link.com,2013-11-28 23:27:00,
2013-11-28 18:42:00,27.7,21.4,30.08,SSW,202,4.7,-999.0,77,-99.99,,,0.00,Acu-Link.com,2013-11-28 23:42:00,
2013-11-28 18:57:00,27.7,21.4,30.09,South,180,2.7,-999.0,77,-99.99,,,0.00,Acu-Link.com,2013-11-28 23:57:00,
2013-11-28 19:12:00,27.7,21.4,30.10,South,180,2.2,-999.0,77,-99.99,,,0.00,Acu-Link.com,2013-11-29 00:12:00,
2013-11-28 19:27:00,27.5,21.6,30.10,WSW,247,1.7,-999.0,78,-99.99,,,0.00,Acu-Link.com,2013-11-29 00:27:00,
2013-11-28 19:43:00,27.5,21.9,30.09,SSW,202,3.2,-999.0,79,-99.99,,,0.00,Acu-Link.com,2013-11-29 00:43:00,
2013-11-28 19:58:00,27.5,21.9,30.09,SSW,202,3.7,-999.0,79,-99.99,,,0.00,Acu-Link.com,2013-11-29 00:58:00,
2013-11-28 20:13:00,27.3,22.0,30.09,SSW,202,2.2,-999.0,80,-99.99,,,0.00,Acu-Link.com,2013-11-29 01:13:00,
2013-11-28 20:29:00,27.3,22.3,30.10,WSW,247,1.7,-999.0,81,-99.99,,,0.00,Acu-Link.com,2013-11-29 01:29:00,
2013-11-28 20:44:00,27.3,22.3,30.10,SSW,202,1.1,-999.0,81,-99.99,,,0.00,Acu-Link.com,2013-11-29 01:44:00,
2013-11-28 20:59:00,27.3,22.0,30.11,SW,225,2.7,-999.0,80,-99.99,,,0.00,Acu-Link.com,2013-11-29 01:59:00,
2013-11-28 21:14:00,27.3,22.3,30.11,SSW,202,3.7,-999.0,81,-99.99,,,0.00,Acu-Link.com,2013-11-29 02:14:00,
2013-11-28 21:29:00,27.3,22.0,30.12,South,180,2.2,-999.0,80,-99.99,,,0.00,Acu-Link.com,2013-11-29 02:29:00,
2013-11-28 21:45:00,27.3,21.7,30.11,South,180,2.7,-999.0,79,-99.99,,,0.00,Acu-Link.com,2013-11-29 02:45:00,
2013-11-28 22:00:00,27.3,22.0,30.12,SSW,202,2.2,-999.0,80,-99.99,,,0.00,Acu-Link.com,2013-11-29 03:00:00,
2013-11-28 22:15:00,27.3,22.3,30.12,WSW,247,3.2,-999.0,81,-99.99,,,0.00,Acu-Link.com,2013-11-29 03:15:00,
2013-11-28 22:30:00,27.1,22.3,30.13,SSW,202,2.2,-999.0,82,-99.99,,,0.00,Acu-Link.com,2013-11-29 03:30:00,
2013-11-28 22:45:00,27.1,22.1,30.14,SSW,202,2.7,-999.0,81,-99.99,,,0.00,Acu-Link.com,2013-11-29 03:45:00,
2013-11-28 23:00:00,27.1,22.1,30.14,SW,225,3.2,-999.0,81,-99.99,,,0.00,Acu-Link.com,2013-11-29 04:00:00,
2013-11-28 23:16:00,27.1,22.1,30.14,SSW,202,3.2,-999.0,81,-99.99,,,0.00,Acu-Link.com,2013-11-29 04:16:00,
2013-11-28 23:31:00,27.1,22.1,30.15,SSW,202,3.2,-999.0,81,-99.99,,,0.00,Acu-Link.com,2013-11-29 04:31:00,
2013-11-28 23:46:00,27.1,22.1,30.15,South,180,3.2,-999.0,81,-99.99,,,0.00,Acu-Link.com,2013-11-29 04:46:00,